Temp
71 75 74 68 53 55 51 55 65 65 68 76 78 72 72 74 71 59 78 82 82 77 78 77 77 77 78 77 77 77 77 77 77 78 79 79 78 78 78 78 78 78 78 78 78 77 77 77 76
69 73 67 62 50 46 51 62 62 67 73 77 76 73 72 71 75 73 75 84 83 79 78 78 77 77 77 77 77 77 77 77 77 78 78 78 78 77 78 78 78 78 77 77 77 76 76 76 76
69 70 57 53 52 46 51 63 66 72 75 71 69 75 75 72 76 76 81 83 83 79 79 78 76 77 77 77 77 77 77 76 77 77 77 77 77 77 77 77 77 76 76 76 76 76 75 75 75
65 60 58 47 48 56 59 63 71 71 75 75 71 67 74 77 77 79 84 84 81 79 80 75 76 76 76 76 76 77 76 76 76 76 77 77 77 77 77 76 75 75 75 75 75 75 74 74 75
63 57 45 45 47 56 64 68 71 69 71 70 72 66 68 74 81 81 82 84 80 79 76 75 76 76 76 76 76 76 76 76 76 77 77 77 77 76 76 75 75 74 75 75 75 74 74 74 74
52 54 42 41 48 55 61 67 67 67 70 72 70 69 69 75 78 78 80 81 81 77 75 75 74 75 75 75 75 75 75 76 76 76 76 76 76 76 75 75 75 75 75 75 74 74 74 74 74
47 46 42 44 46 51 59 67 65 66 67 68 72 66 70 70 75 78 79 81 78 75 75 74 74 74 73 73 74 74 75 75 75 75 75 75 74 75 75 74 74 74 74 74 74 73 73 73 73
51 47 41 44 44 46 59 62 66 65 65 64 67 64 67 70 75 76 77 78 76 76 75 74 73 73 73 72 72 72 73 73 74 73 72 71 71 72 73 72 73 73 73 73 73 73 72 72 72
56 38 36 41 45 49 59 57 64 67 58 61 65 63 73 77 76 73 72 72 72 73 75 74 73 74 73 73 71 70 71 71 70 70 69 70 71 71 71 69 70 71 72 72 72 72 71 69 69
45 38 40 49 51 50 55 55 57 58 60 57 60 69 66 74 72 71 71 67 68 70 72 74 74 74 74 75 71 71 72 71 72 72 72 71 70 70 70 67 68 70 70 71 71 70 69 69 65
47 39 47 50 53 54 52 53 58 55 50 56 55 61 62 56 60 69 69 68 68 72 72 74 75 75 74 74 72 70 71 70 72 73 71 73 70 68 68 67 67 67 66 67 66 65 65 66 65
42 48 50 50 53 52 49 53 51 53 55 61 61 62 60 58 53 67 68 68 68 70 72 74 75 75 75 74 72 71 71 72 72 72 72 72 71 70 68 68 67 66 65 64 63 63 66 67 68
43 46 50 51 51 51 53 49 49 50 56 61 62 62 59 58 57 55 71 71 71 70 72 73 74 75 74 73 72 71 72 73 74 74 74 73 71 70 70 67 67 66 66 66 64 67 66 66 67
46 45 46 48 48 50 48 48 50 52 57 57 59 59 58 56 56 56 65 68 70 71 71 73 72 74 74 72 72 72 73 73 74 74 75 74 71 71 66 65 67 65 68 69 66 65 65 64 66
45 39 42 44 46 45 49 42 43 53 55 53 55 58 59 56 59 55 53 68 69 70 71 72 71 73 73 72 73 73 74 74 74 74 73 75 72 72 67 67 67 67 69 69 66 66 65 64 66
37 38 29 41 45 47 45 31 45 53 52 50 53 55 55 54 55 57 56 66 68 68 70 72 72 72 72 72 73 72 73 73 74 74 73 74 73 72 70 69 67 65 69 66 64 63 62 61 62
33 25 30 36 47 46 44 35 45 52 51 50 52 53 54 52 54 56 57 62 68 68 69 69 69 70 70 70 71 72 72 72 73 74 70 74 72 72 68 70 66 66 64 64 65 62 62 60 60
26 28 34 33 42 44 41 40 46 50 50 49 50 53 53 50 53 56 58 62 68 68 68 68 67 69 69 68 68 70 70 70 72 71 69 70 69 70 68 69 65 65 63 63 63 62 61 60 60
35 32 30 36 43 40 38 39 41 44 49 48 49 51 49 48 55 55 56 62 68 66 66 66 67 68 67 65 64 65 65 67 70 70 71 70 68 68 68 64 65 64 62 62 63 61 60 58 59
35 31 30 37 43 41 37 35 39 43 47 49 50 49 48 49 52 53 56 63 64 65 65 65 66 66 66 67 66 67 66 67 68 69 71 69 67 67 66 64 64 63 62 62 62 61 58 58 58
32 29 31 32 37 37 33 30 35 41 49 51 51 53 52 52 52 52 55 61 65 63 64 65 66 66 66 66 67 66 65 65 64 65 67 68 68 66 65 64 63 62 62 60 60 60 60 55 56
28 39 34 34 30 24 34 23 33 38 43 47 49 49 50 52 53 52 51 61 62 63 64 65 65 65 66 66 66 64 64 62 65 66 66 65 66 65 65 64 63 62 62 61 60 62 59 58 54
32 38 37 36 32 30 31 29 34 40 39 44 47 49 50 53 53 52 53 61 63 64 63 64 64 65 66 67 66 65 63 64 64 64 64 64 63 65 64 64 63 62 62 61 60 59 59 59 57
40 34 35 34 31 25 33 31 30 37 42 45 49 51 53 54 53 54 60 62 62 63 63 63 63 64 65 67 67 65 64 63 62 63 63 65 63 64 63 64 62 62 62 61 60 60 59 58 58
35 33 27 27 27 27 38 32 37 47 51 52 51 52 55 56 56 55 59 60 62 61 62 63 63 63 65 65 67 65 64 64 63 63 63 63 63 62 62 63 62 62 61 61 61 59 58 58 57
40 39 30 23 25 29 36 30 39 50 52 54 56 55 54 55 57 54 59 61 61 62 62 63 63 63 65 65 66 66 65 65 65 65 64 64 64 64 65 64 63 62 62 60 60 58 58 57 57
41 36 43 33 35 30 35 41 48 48 49 51 51 53 54 55 55 56 60 60 61 62 62 63 63 63 64 65 66 66 66 65 65 66 64 64 65 65 65 65 64 62 62 61 59 59 58 58 57
43 46 33 33 24 25 33 35 36 44 47 49 50 52 55 56 57 57 58 59 61 62 63 63 64 63 64 64 65 66 66 66 66 65 63 64 64 64 64 64 63 63 62 62 60 60 60 59 58
39 37 41 39 35 26 25 32 46 45 47 48 49 51 51 54 58 58 58 59 60 62 62 62 62 63 62 63 64 64 66 66 65 63 63 64 63 64 64 63 63 63 63 62 61 61 60 59 58
43 39 39 31 29 33 33 32 48 45 46 48 51 51 53 54 56 56 56 56 58 60 61 61 62 62 63 64 64 64 65 65 64 64 65 61 62 62 64 63 64 64 65 64 62 61 62 60 59
MSLP
1012.91 1012.43 1012.06 1011.36 1011.38 1009.56 1007.91 1006.46 1006.05 1005.28 1004.25 1003.15 1002.80 1002.84 1003.16 1003.26 1003.94 1005.78 1005.94 1006.10 1006.74 1008.03 1009.45 1010.25 1011.06 1011.53 1012.10 1012.62 1013.15 1013.72 1013.99 1014.18 1014.55 1014.78 1015.03 1015.37 1015.72 1015.95 1016.23 1016.43 1016.64 1016.69 1017.01 1017.24 1017.57 1017.98 1018.36 1018.54 1018.81
1013.52 1012.66 1012.21 1011.45 1010.55 1008.91 1006.23 1006.24 1005.22 1004.73 1003.98 1003.10 1002.79 1002.72 1003.41 1003.35 1003.94 1005.22 1005.88 1006.23 1007.06 1007.83 1009.18 1010.17 1010.90 1011.54 1012.08 1012.67 1013.08 1013.77 1014.23 1014.38 1014.61 1015.01 1015.26 1015.61 1016.04 1016.35 1016.52 1016.80 1017.09 1017.32 1017.68 1017.83 1018.02 1018.34 1018.73 1018.95 1019.17
1013.36 1012.90 1012.44 1011.50 1009.36 1007.08 1005.41 1005.28 1004.77 1004.34 1003.60 1003.41 1003.25 1002.89 1003.34 1003.91 1004.38 1004.91 1005.20 1006.30 1007.26 1008.22 1008.87 1009.92 1010.91 1011.54 1012.03 1012.63 1013.11 1013.68 1014.25 1014.58 1014.75 1015.12 1015.49 1015.86 1016.15 1016.58 1016.85 1017.11 1017.57 1017.87 1018.27 1018.56 1018.74 1018.85 1019.06 1019.29 1019.44
1013.32 1013.10 1012.79 1011.31 1007.58 1005.10 1006.19 1005.43 1004.59 1004.04 1003.32 1003.19 1003.77 1003.88 1003.49 1004.27 1004.40 1004.87 1005.29 1006.29 1007.44 1008.39 1008.88 1009.79 1010.86 1011.51 1012.09 1012.66 1013.19 1013.73 1014.34 1014.75 1014.98 1015.26 1015.71 1016.03 1016.33 1016.80 1017.21 1017.63 1017.95 1018.28 1018.81 1019.07 1019.31 1019.62 1019.84 1019.83 1019.67
1013.37 1013.02 1012.48 1010.35 1006.62 1007.50 1006.56 1006.15 1005.62 1004.66 1004.14 1003.77 1003.83 1004.06 1004.36 1004.89 1004.74 1005.24 1005.73 1006.11 1007.42 1008.45 1009.15 1009.85 1010.67 1011.54 1012.12 1012.75 1013.39 1013.90 1014.29 1014.91 1015.22 1015.36 1015.87 1016.33 1016.57 1016.98 1017.45 1017.93 1018.26 1018.63 1019.10 1019.52 1019.73 1019.99 1020.33 1020.46 1020.39
1013.91 1013.65 1012.74 1010.44 1007.29 1008.58 1008.15 1007.17 1006.07 1005.29 1004.95 1004.38 1004.26 1004.45 1004.76 1004.81 1005.12 1005.80 1006.08 1006.29 1007.36 1008.38 1009.18 1010.00 1010.62 1011.41 1012.14 1012.83 1013.41 1014.03 1014.40 1014.99 1015.29 1015.71 1015.87 1016.52 1016.94 1017.18 1017.57 1018.03 1018.33 1018.88 1019.38 1019.74 1020.05 1020.41 1020.63 1020.80 1020.84
1014.99 1014.55 1012.76 1010.97 1008.68 1008.73 1008.37 1007.24 1006.60 1006.16 1005.66 1005.20 1005.24 1004.50 1004.74 1005.14 1005.05 1005.84 1006.34 1006.78 1007.53 1008.69 1009.61 1009.93 1010.73 1011.47 1012.12 1012.67 1013.42 1014.09 1014.43 1015.00 1015.51 1015.80 1016.22 1016.68 1017.28 1017.60 1017.70 1018.07 1018.62 1018.95 1019.53 1020.03 1020.45 1020.73 1021.00 1021.05 1021.13
1015.48 1015.06 1013.13 1011.87 1010.49 1009.03 1009.27 1008.18 1007.42 1007.20 1006.29 1006.27 1005.73 1004.92 1004.55 1005.26 1005.49 1005.91 1006.31 1006.95 1007.90 1008.59 1009.64 1010.39 1010.74 1011.43 1012.23 1012.74 1013.31 1014.04 1014.65 1015.00 1015.64 1016.02 1016.43 1016.93 1017.56 1017.86 1018.18 1018.42 1018.86 1019.35 1019.57 1020.12 1020.61 1021.05 1021.35 1021.41 1021.39
1015.86 1015.43 1013.61 1013.02 1011.79 1010.68 1010.16 1009.03 1008.40 1007.74 1007.50 1007.47 1006.57 1006.44 1005.52 1004.35 1005.11 1006.08 1006.61 1007.46 1008.20 1008.47 1009.19 1010.35 1010.71 1011.10 1011.99 1012.84 1013.37 1014.14 1014.64 1015.15 1015.73 1016.38 1016.67 1017.12 1017.71 1018.20 1018.54 1018.89 1019.19 1019.67 1020.04 1020.26 1020.68 1021.27 1021.70 1021.81 1021.57
1015.89 1014.89 1013.99 1013.54 1012.61 1011.60 1010.93 1010.12 1009.60 1008.88 1007.86 1007.25 1007.31 1005.79 1006.09 1005.33 1005.15 1005.22 1006.21 1007.28 1007.72 1008.07 1008.68 1009.86 1010.48 1010.86 1011.52 1012.47 1013.45 1014.05 1014.63 1015.18 1015.75 1016.15 1016.76 1017.14 1017.64 1018.29 1018.79 1019.21 1019.59 1019.85 1020.33 1020.56 1021.01 1021.45 1021.75 1021.99 1022.11
1015.48 1014.29 1014.18 1013.31 1012.93 1012.28 1011.46 1010.71 1010.42 1009.40 1007.93 1007.81 1007.94 1007.10 1007.62 1008.23 1008.31 1005.48 1005.89 1006.36 1006.79 1007.46 1008.14 1008.92 1009.82 1010.35 1011.02 1011.83 1013.13 1013.68 1014.64 1014.96 1015.59 1016.07 1016.35 1017.01 1017.71 1018.41 1019.07 1019.58 1019.95 1020.30 1020.59 1021.00 1021.26 1021.61 1021.86 1021.98 1022.11
1015.26 1014.61 1014.14 1013.37 1013.16 1012.64 1011.71 1011.31 1010.56 1009.66 1008.32 1008.42 1008.19 1007.93 1008.68 1009.30 1009.63 1007.24 1006.11 1006.72 1007.37 1007.54 1007.75 1007.97 1009.04 1009.79 1010.52 1011.41 1012.56 1013.33 1014.11 1014.54 1015.28 1015.92 1016.11 1016.83 1017.43 1018.26 1018.94 1019.47 1019.82 1020.29 1020.61 1021.13 1021.31 1021.54 1021.67 1021.84 1021.85
1015.05 1014.46 1014.09 1013.28 1012.96 1012.49 1011.97 1010.86 1010.18 1009.09 1009.22 1008.88 1008.14 1007.96 1008.66 1009.24 1008.43 1008.39 1006.42 1006.55 1007.18 1007.54 1007.76 1007.88 1008.69 1009.42 1010.23 1010.94 1012.22 1013.03 1013.46 1014.20 1014.76 1015.41 1015.75 1016.47 1017.17 1017.87 1018.51 1019.04 1019.54 1019.99 1020.35 1020.78 1021.14 1021.20 1021.26 1021.69 1021.92
1015.32 1014.58 1013.69 1012.94 1012.26 1012.04 1011.46 1010.42 1009.96 1008.96 1009.29 1009.11 1008.05 1007.39 1008.02 1008.82 1008.60 1008.52 1007.77 1006.76 1006.82 1006.94 1007.29 1007.92 1008.53 1009.08 1009.84 1010.86 1011.59 1012.80 1013.17 1013.70 1014.36 1014.98 1015.22 1016.14 1016.98 1017.62 1018.37 1018.84 1019.29 1019.61 1019.89 1020.25 1020.82 1021.14 1021.45 1021.81 1022.06
1016.02 1014.76 1013.68 1012.34 1011.59 1011.17 1011.11 1010.04 1008.62 1008.80 1008.76 1008.47 1007.86 1007.14 1006.36 1008.17 1008.41 1009.61 1008.42 1006.54 1006.63 1006.83 1006.77 1007.49 1008.13 1008.99 1009.80 1010.41 1011.36 1012.16 1012.88 1013.43 1014.09 1014.70 1015.04 1015.68 1016.63 1017.42 1018.31 1018.73 1019.01 1019.45 1019.57 1020.02 1020.54 1021.13 1021.37 1021.75 1022.06
1016.29 1015.08 1013.43 1010.82 1010.99 1010.15 1010.80 1008.69 1007.84 1007.90 1007.59 1007.10 1006.99 1006.61 1006.93 1006.61 1006.46 1007.17 1008.26 1006.58 1006.19 1006.63 1006.72 1007.13 1007.79 1008.60 1009.66 1010.31 1010.98 1011.71 1012.43 1013.33 1013.87 1014.56 1014.87 1015.39 1016.33 1017.00 1017.88 1018.41 1018.80 1019.28 1019.52 1020.03 1020.54 1021.09 1021.77 1022.04 1022.34
1015.63 1013.53 1012.55 1010.47 1010.24 1009.32 1009.02 1007.53 1006.76 1006.24 1005.86 1005.78 1005.58 1005.06 1006.22 1007.47 1007.46 1008.20 1008.10 1007.70 1005.40 1005.82 1006.27 1006.87 1007.67 1008.48 1009.40 1010.43 1011.05 1011.56 1012.07 1012.99 1013.79 1014.27 1014.96 1015.09 1016.16 1016.81 1017.51 1017.85 1018.62 1019.09 1019.51 1019.97 1020.48 1021.08 1021.64 1021.95 1022.43
1013.97 1013.07 1011.46 1009.90 1008.51 1008.79 1007.56 1005.85 1005.66 1004.96 1005.18 1005.03 1004.32 1003.86 1004.16 1005.11 1005.71 1005.63 1005.35 1005.22 1004.23 1005.04 1005.86 1006.66 1007.35 1008.12 1009.20 1010.34 1011.13 1011.55 1012.10 1013.03 1013.57 1014.21 1014.94 1015.35 1015.95 1016.74 1017.54 1017.92 1018.37 1018.85 1019.51 1019.99 1020.44 1021.04 1021.40 1021.80 1022.17
1013.67 1012.72 1010.99 1008.83 1008.21 1007.93 1006.94 1005.71 1004.85 1004.58 1003.95 1003.41 1003.25 1002.78 1003.49 1004.09 1003.29 1005.05 1005.18 1004.15 1003.30 1004.34 1005.23 1006.22 1006.96 1008.06 1008.86 1010.04 1011.05 1011.69 1011.96 1012.89 1013.35 1013.83 1014.75 1015.27 1015.81 1016.51 1017.43 1017.95 1018.33 1018.78 1019.41 1019.94 1020.28 1020.82 1021.39 1021.87 1021.91
1012.71 1011.73 1009.44 1007.28 1007.55 1007.40 1006.54 1004.95 1004.31 1003.68 1002.26 1001.82 1002.24 1002.06 1002.64 1004.70 1003.60 1003.70 1002.44 1002.89 1002.49 1003.27 1004.69 1005.78 1006.63 1007.52 1008.41 1009.90 1010.59 1011.52 1011.82 1012.30 1013.10 1013.61 1014.48 1015.25 1015.79 1016.47 1017.04 1017.56 1018.31 1018.79 1019.37 1019.88 1020.27 1020.47 1021.36 1021.86 1021.93
1011.33 1010.95 1008.95 1007.31 1007.00 1006.92 1006.49 1003.99 1002.86 1001.66 1000.62 1000.78 1000.95 1001.14 1001.12 1002.67 1003.32 1003.54 1002.61 1001.91 1000.54 1002.26 1003.91 1005.22 1005.94 1007.32 1008.19 1009.12 1010.43 1011.30 1011.91 1012.25 1013.09 1013.80 1014.52 1015.04 1015.63 1016.31 1016.94 1017.36 1017.93 1018.64 1019.12 1019.59 1020.05 1020.33 1020.88 1021.65 1021.91
1010.17 1009.00 1008.32 1007.26 1007.35 1005.57 1004.92 1002.57 1000.02 999.40 999.22 999.79 999.91 999.92 1000.20 1000.38 1001.40 1001.46 1002.14 999.64 1000.12 1000.36 1003.08 1004.52 1005.70 1007.08 1007.95 1008.67 1009.83 1010.49 1010.97 1011.72 1012.69 1013.49 1014.33 1015.07 1015.37 1016.03 1016.68 1017.11 1017.56 1018.26 1018.80 1019.42 1019.73 1020.00 1020.56 1021.18 1021.81
1008.67 1008.18 1007.02 1006.60 1005.36 1004.95 1002.65 1002.00 997.66 997.66 997.91 998.04 998.22 998.28 998.72 998.58 999.33 1000.77 1001.03 996.59 999.03 1001.11 1002.20 1003.82 1005.39 1006.58 1007.27 1008.33 1009.22 1010.02 1010.82 1011.67 1012.55 1013.44 1014.17 1014.99 1015.54 1015.87 1016.30 1016.90 1017.26 1018.10 1018.47 1019.11 1019.44 1019.81 1020.40 1020.70 1021.40
1007.78 1007.45 1006.06 1005.37 1004.64 1003.21 1000.61 1000.24 997.99 997.15 996.36 996.47 996.75 996.90 997.51 998.17 997.83 999.90 1000.11 997.71 999.21 1001.07 1001.96 1003.44 1004.85 1006.13 1006.89 1007.55 1008.53 1009.51 1010.28 1011.20 1012.21 1013.04 1013.88 1014.62 1015.23 1015.74 1016.08 1016.58 1017.04 1017.55 1017.97 1018.79 1019.13 1019.62 1020.18 1020.48 1020.74
1007.26 1006.64 1004.89 1003.96 1002.84 1000.87 999.61 998.86 996.00 995.87 994.79 994.46 994.40 995.34 995.96 997.05 997.53 998.53 998.77 999.11 999.95 1000.74 1001.75 1003.13 1004.41 1005.51 1006.31 1007.15 1008.02 1009.00 1009.84 1010.60 1011.37 1012.31 1013.29 1014.02 1014.68 1015.27 1015.81 1016.28 1016.82 1017.40 1017.51 1018.18 1018.52 1019.20 1019.81 1020.14 1020.46
1005.11 1004.91 1004.12 1003.56 1002.09 1000.25 998.49 997.03 995.49 993.62 993.97 993.33 992.74 994.01 994.85 995.44 995.81 997.36 998.13 998.79 999.81 1000.55 1001.77 1002.82 1003.92 1005.15 1005.79 1006.76 1007.47 1008.44 1009.28 1009.96 1010.69 1011.62 1012.50 1013.14 1013.86 1014.41 1015.22 1015.69 1016.20 1016.74 1017.16 1017.74 1018.23 1018.90 1019.38 1019.66 1020.06
1003.64 1003.57 1003.46 1003.26 1001.50 1000.39 998.68 996.24 995.84 995.61 994.33 993.00 992.12 993.22 993.51 994.69 994.98 996.73 997.54 999.05 999.96 1000.56 1001.58 1002.49 1003.56 1004.69 1005.40 1006.18 1007.00 1007.84 1008.60 1009.36 1010.08 1010.92 1011.77 1012.64 1013.26 1013.86 1014.57 1015.24 1015.81 1016.28 1016.65 1017.12 1017.84 1018.40 1018.97 1019.25 1019.57
1003.76 1003.32 1003.15 1002.97 1002.06 1000.55 998.56 997.66 996.88 995.41 994.66 994.42 993.70 993.16 994.44 994.87 995.45 996.85 998.06 998.16 999.99 1000.47 1001.68 1002.56 1003.41 1004.23 1005.00 1005.75 1006.65 1007.31 1007.85 1008.80 1009.51 1010.55 1011.37 1011.96 1012.68 1013.27 1013.87 1014.58 1015.25 1016.03 1016.41 1016.89 1017.47 1018.00 1018.40 1018.78 1019.05
1003.65 1003.34 1003.35 1002.95 1002.31 1001.55 1000.10 999.04 997.67 996.77 996.15 995.83 995.08 995.50 995.51 995.49 996.26 997.44 998.24 999.06 1000.06 1000.66 1001.78 1002.40 1003.27 1004.11 1004.83 1005.59 1006.48 1007.07 1007.54 1008.30 1009.20 1010.06 1010.84 1011.49 1012.06 1012.52 1013.13 1013.91 1014.69 1015.34 1015.99 1016.42 1017.00 1017.52 1017.84 1018.13 1018.46
1004.12 1003.78 1003.71 1003.31 1002.80 1001.85 1000.68 999.35 997.92 997.27 996.77 996.35 995.90 995.18 996.16 996.36 997.64 998.09 998.37 999.43 1000.05 1000.75 1001.67 1002.31 1003.10 1003.80 1004.37 1005.26 1005.92 1006.63 1007.19 1007.83 1008.66 1009.39 1010.12 1010.83 1011.51 1012.07 1012.68 1013.37 1013.88 1014.36 1014.85 1015.49 1016.09 1016.81 1017.04 1017.43 1017.86
Wind_Speed
15 7 6 3 4 7 14 15 10 16 15 10 8 5 7 8 6 4 7 9 20 21 18 18 18 18 17 17 16 13 14 15 15 16 16 17 16 18 19 20 19 21 22 24 24 23 22 23 23
12 8 3 4 8 15 16 18 18 12 12 10 8 4 7 7 10 8 8 12 18 21 18 16 19 18 19 18 17 15 14 15 16 16 16 17 18 19 21 21 21 21 21 22 23 22 23 21 21
8 5 2 5 10 22 15 13 13 19 12 5 5 4 6 6 10 13 10 20 18 18 18 17 20 19 19 18 18 16 16 15 16 16 16 17 19 19 20 21 20 20 20 20 20 19 20 19 18
4 2 4 7 25 24 23 9 15 9 10 8 1 7 3 7 6 8 14 19 18 18 16 21 20 19 18 17 17 17 16 17 16 16 16 17 19 20 21 20 19 21 18 19 19 19 18 15 15
3 4 4 10 31 14 13 9 15 19 16 8 9 7 4 3 9 14 12 18 18 17 17 17 21 19 19 17 17 18 17 16 17 17 17 18 20 21 21 19 18 20 19 18 18 19 17 13 12
3 3 7 17 29 8 7 16 21 22 18 7 10 9 6 9 9 9 11 14 16 15 18 17 20 20 18 17 17 16 17 17 17 17 19 18 18 20 21 19 17 18 18 18 18 17 16 12 10
3 6 12 21 25 19 12 9 16 15 17 19 9 13 6 7 6 11 9 11 13 17 15 15 14 16 17 17 16 17 18 17 16 18 18 18 16 17 19 20 18 19 19 17 17 16 14 11 8
3 5 11 13 17 19 12 18 16 14 16 15 6 8 14 9 8 10 9 12 14 15 16 14 14 14 12 12 15 15 16 17 17 17 17 15 13 15 16 17 17 17 18 17 16 16 13 10 6
6 6 10 15 18 15 15 21 14 14 5 6 11 11 18 19 17 11 8 9 12 12 16 15 14 14 13 11 11 13 15 14 15 14 14 14 8 9 12 12 15 17 16 17 18 16 12 7 3
5 7 10 13 18 19 19 21 18 17 21 16 18 19 21 5 16 21 17 15 17 17 16 16 15 15 14 11 11 10 11 9 9 10 11 6 7 7 10 12 13 16 15 16 16 15 13 7 0
9 18 15 19 22 24 22 21 18 20 21 14 13 20 12 10 22 19 18 20 19 21 14 18 17 16 16 12 9 7 6 7 7 11 8 8 6 8 7 6 6 7 10 5 6 6 4 6 4
18 21 20 22 21 23 25 23 23 21 20 16 15 21 12 13 13 15 18 17 16 18 18 20 19 17 16 11 9 10 8 7 8 8 8 9 6 7 8 6 7 5 4 6 5 4 5 6 7
17 18 19 23 22 25 23 26 25 25 19 18 19 20 16 16 18 20 15 15 17 18 17 18 17 17 14 15 10 10 10 8 10 9 9 9 8 7 7 6 6 5 5 5 5 4 5 4 3
14 21 21 21 23 23 25 29 24 20 16 22 26 23 18 16 12 15 18 16 19 18 19 17 16 17 16 14 16 11 10 10 9 7 7 12 9 7 5 6 5 5 5 4 5 5 5 4 4
15 20 21 22 19 23 23 27 31 23 16 24 26 24 23 18 18 19 18 19 17 15 19 18 18 17 15 17 15 11 10 10 9 8 8 12 12 11 7 5 5 6 4 5 5 4 4 5 3
15 19 19 19 17 25 20 27 31 23 24 27 27 22 17 21 19 19 17 22 20 17 19 17 16 18 15 15 12 10 10 9 9 8 7 11 13 11 9 6 5 6 5 5 5 5 4 4 4
10 15 17 26 17 20 20 28 31 26 27 25 24 27 18 21 19 16 27 27 24 19 21 15 17 19 17 12 9 11 12 9 8 8 5 10 12 11 8 7 5 6 5 4 5 3 4 4 3
9 13 16 22 19 19 26 28 26 27 21 23 29 25 18 18 21 16 19 30 23 20 22 17 16 18 17 9 7 8 8 8 8 7 5 8 7 12 9 7 5 6 5 5 4 5 3 4 4
21 21 27 28 23 24 25 24 24 22 23 26 26 25 14 17 17 17 20 29 25 20 20 20 20 18 14 11 11 9 7 8 7 8 10 8 6 8 10 5 7 5 5 5 6 5 5 1 4
22 23 32 31 22 21 15 22 26 27 28 21 16 14 17 18 13 24 23 25 23 26 20 19 20 18 15 12 11 10 7 5 5 7 9 7 7 6 6 7 7 6 5 6 5 6 3 2 3
22 24 29 28 21 18 19 27 29 25 18 18 19 16 16 19 14 20 24 32 30 25 22 20 21 18 16 17 11 9 5 6 4 6 7 8 10 7 6 7 7 6 5 5 5 5 7 4 3
22 22 31 29 16 13 7 11 16 20 22 18 19 15 17 14 16 19 21 27 25 24 20 21 20 19 16 17 14 17 10 12 9 8 7 6 9 8 7 7 7 7 4 6 5 5 4 5 4
15 13 20 19 18 14 18 10 6 15 23 22 21 19 19 18 16 15 29 23 22 21 21 20 20 18 18 18 15 13 12 9 7 8 11 7 6 8 7 7 8 7 5 6 7 6 5 4 4
7 7 14 15 10 7 12 6 3 11 20 20 20 23 22 17 14 15 25 22 19 18 19 19 21 19 18 16 17 16 16 13 11 10 10 9 7 8 7 8 6 7 7 6 6 6 7 5 4
3 6 5 3 2 4 2 5 8 10 6 16 24 22 18 15 16 12 17 18 20 21 20 18 20 19 18 16 18 16 16 17 17 14 11 11 9 7 9 8 7 6 6 7 6 6 6 6 5
12 9 5 8 6 9 7 4 3 9 6 16 14 12 12 13 15 14 18 19 19 20 19 20 20 17 20 17 16 16 16 12 12 13 10 10 10 10 12 11 9 8 7 7 6 5 5 6 5
5 4 6 5 9 5 5 5 6 2 8 19 7 9 13 17 18 17 17 19 16 17 18 19 20 17 19 17 14 15 15 14 13 16 12 10 10 10 13 13 11 10 9 10 9 7 7 7 7
8 6 3 2 6 6 6 5 9 18 13 12 5 8 14 16 20 18 12 10 11 15 14 16 17 17 17 18 14 12 14 13 12 11 13 12 10 11 13 13 11 10 9 10 9 7 8 9 7
3 5 3 3 2 3 5 2 8 13 9 9 6 4 6 9 14 15 16 13 13 14 14 14 14 15 15 15 14 11 12 13 11 11 10 9 10 12 14 13 12 11 11 10 9 9 9 10 8
4 6 7 3 4 5 4 4 5 6 6 8 2 7 3 9 11 13 13 11 10 12 13 13 13 15 14 15 15 13 12 12 12 14 13 10 11 10 13 12 14 14 14 13 13 12 10 11 11
Wind_Direction
313 299 293 284 255 228 231 233 237 255 273 236 247 208 247 210 204 189 150 143 132 131 146 149 153 151 150 145 145 144 137 133 134 128 123 122 118 115 114 111 107 103 104 101 102 102 106 101 100
304 308 254 265 234 240 234 232 234 235 260 289 309 175 308 275 87 120 130 140 135 136 144 149 150 145 145 143 145 142 141 139 135 129 127 124 119 118 115 108 104 101 103 104 107 110 105 103 108
280 311 264 213 239 234 252 218 220 237 222 281 308 280 184 274 101 143 141 133 136 140 150 144 149 148 146 146 143 142 144 142 137 130 128 127 123 118 113 109 105 103 103 102 107 109 108 112 113
286 223 265 251 238 240 244 278 290 298 234 163 158 282 37 33 135 136 143 139 137 144 151 142 148 148 146 144 142 144 145 143 138 132 130 128 122 120 113 109 109 110 109 111 113 109 110 115 121
270 269 256 242 253 263 270 271 254 280 282 197 177 243 167 42 91 122 156 147 143 151 134 143 146 147 145 147 145 145 144 145 139 132 130 130 126 121 119 114 112 112 113 115 117 114 112 117 117
306 307 251 244 258 266 264 260 282 287 299 258 209 196 228 143 123 145 150 151 145 139 144 147 146 147 144 145 146 146 144 145 139 133 126 126 126 129 127 120 112 112 117 118 114 114 116 120 117
279 277 250 268 280 286 303 282 266 277 279 282 321 198 221 150 151 148 162 147 135 135 140 143 148 144 145 144 147 150 147 145 142 136 128 126 129 131 126 119 117 115 113 115 113 115 117 118 97
317 280 265 266 281 290 297 296 304 294 280 345 319 253 210 163 160 151 161 153 130 143 143 147 149 149 147 149 145 151 151 145 139 131 126 120 124 125 122 121 123 121 121 120 119 118 117 115 106
300 259 266 272 278 295 294 293 295 294 273 303 283 297 305 157 154 156 159 133 138 143 147 157 156 154 151 147 147 140 140 137 134 129 127 126 125 123 128 118 122 123 122 122 121 117 114 101 105
205 246 254 271 282 288 291 293 302 290 279 267 289 291 360 170 166 164 173 158 162 157 159 162 162 158 154 150 149 145 143 141 143 138 144 130 140 140 125 125 121 123 122 122 123 128 134 121 68
234 250 270 271 283 288 292 291 291 277 267 263 272 284 356 330 312 184 173 169 171 165 167 162 165 162 156 150 155 145 148 145 142 152 152 147 113 118 118 122 117 121 118 115 119 141 172 155 179
261 259 264 274 277 283 282 291 281 280 274 267 267 281 302 291 306 247 181 179 172 173 175 164 167 163 158 146 153 151 152 154 149 172 155 140 130 132 136 143 141 145 135 148 151 182 201 159 174
264 267 271 277 276 275 274 270 268 268 285 290 274 269 271 278 298 312 207 187 180 182 177 170 163 159 153 149 150 156 158 156 156 172 146 143 144 145 146 149 156 152 147 158 178 187 123 124 130
282 284 279 278 275 282 266 263 265 256 259 272 268 260 260 267 291 286 254 202 192 183 170 172 155 157 152 155 153 162 157 153 156 158 155 146 142 144 128 142 159 135 158 155 147 128 140 127 111
290 278 271 260 263 261 266 272 257 254 248 253 261 262 262 242 257 256 312 204 192 185 170 166 157 157 154 153 154 156 160 154 156 159 156 137 145 152 148 161 143 156 158 152 128 134 118 115 102
274 267 268 270 251 255 246 256 252 250 243 243 253 252 239 261 264 279 274 237 189 175 180 164 158 155 156 155 154 151 149 156 156 166 159 144 150 151 153 162 137 164 152 138 128 130 123 128 136
217 265 257 280 259 257 242 257 257 240 236 242 243 247 220 236 236 238 252 261 188 175 176 173 150 154 149 153 147 148 146 144 155 161 149 151 146 154 141 163 145 141 140 134 141 137 142 142 155
260 251 269 268 283 284 274 255 250 247 246 244 245 249 220 233 228 267 267 273 179 172 174 170 159 155 149 138 130 135 135 149 162 158 145 150 144 153 155 165 157 142 145 154 148 154 154 151 162
265 272 272 268 271 261 263 272 271 272 242 240 256 230 203 228 240 244 261 257 185 170 166 167 157 159 148 145 150 153 161 159 159 144 154 145 144 145 161 165 149 152 153 168 159 147 149 148 145
258 268 269 273 267 265 285 268 275 268 240 230 232 203 205 207 225 260 260 234 171 167 167 165 157 158 149 156 153 163 159 141 136 138 147 145 141 153 153 147 148 152 153 162 167 142 127 147 149
250 252 264 262 290 279 282 275 261 254 236 224 228 214 209 207 198 248 256 233 166 162 163 169 154 159 159 159 153 154 121 115 110 134 145 152 152 156 156 147 146 165 164 164 174 151 149 150 194
271 246 256 268 277 268 173 294 242 220 230 210 214 207 217 199 198 243 271 184 160 156 156 160 153 163 162 160 165 158 160 157 160 161 146 148 149 157 167 161 153 163 159 160 158 159 162 139 169
255 280 275 262 267 279 270 252 268 181 215 210 212 208 215 210 205 197 265 146 155 157 161 158 156 164 166 167 162 160 156 155 149 150 148 157 154 164 166 163 156 158 160 166 163 159 176 167 155
273 290 265 258 271 243 274 221 169 178 217 217 220 216 204 196 212 203 225 154 157 159 154 156 159 168 168 163 161 164 163 152 152 158 161 171 168 169 172 165 159 162 162 170 170 172 180 186 167
178 284 288 288 251 300 285 247 271 210 194 222 219 211 206 189 173 158 187 173 159 162 160 160 162 170 165 166 168 166 166 163 164 165 175 171 174 173 178 169 171 178 164 176 166 164 175 181 180
282 254 339 313 328 298 342 260 346 337 339 293 267 171 182 166 152 158 182 165 166 164 166 166 165 167 169 172 173 171 172 171 170 173 174 182 180 178 176 178 177 173 171 166 164 163 180 177 189
328 325 285 282 270 283 279 305 341 77 342 322 247 179 172 159 151 170 191 169 165 164 166 169 168 171 177 173 176 177 175 174 174 179 172 178 176 178 177 181 180 179 176 172 170 176 185 184 190
217 324 327 244 326 314 324 11 330 336 339 327 107 160 146 155 153 171 167 178 158 157 159 171 176 176 176 176 179 187 177 176 168 165 178 180 179 174 173 177 179 182 178 174 176 185 191 191 198
208 267 242 303 271 302 325 343 329 321 325 327 107 102 139 138 147 162 150 158 161 156 164 168 173 178 181 177 183 189 182 178 167 169 173 178 170 174 173 173 174 177 183 181 188 199 195 196 197
313 297 297 270 337 278 209 285 344 327 354 13 340 139 171 145 149 148 133 134 139 159 166 171 175 182 176 184 182 184 191 176 174 179 181 156 166 166 172 172 181 185 186 187 189 201 202 203 203